Regional Weather Roundup
Issued by NWS

Home | Current Version | Previous Version | Text Only | Print | Product List | Glossary On
Versions: 1 2 3 4 5 6 7 8 9 10 11 12 13 14 15 16 17 18 19 20 21 22 23 24 25 26 27 28 29 30 31 32 33 34 35 36 37 38 39 40 41 42 43 44 45 46 47 48 49 50
000
ASUS45 KBOU 252307
RWRCO

WEATHER ROUNDUP FOR COLORADO
NATIONAL WEATHER SERVICE DENVER/BOULDER CO
500 PM MDT MON JUL 25 2016

NOTE: "FAIR" INDICATES FEW OR NO CLOUDS BELOW 12000 FEET WITH NO
SIGNIFICANT WEATHER AND/OR OBSTRUCTIONS TO VISIBILITY.

COZ001>005-013-030-031-260000-
...NORTHWEST COLORADO...

CITY           SKY/WX    TMP DP  RH WIND       PRES   REMARKS
CRAIG          FAIR      89  35  14 S16       30.19F
HAYDEN         FAIR      84  32  15 SW17G24   30.23S
MEEKER         FAIR      88  39  17 VRB5      30.22F
MOUNT WERNER   NOT AVBL
STEAMBOAT SPGS FAIR      86  33  14 S10       30.25F
WALDEN         FAIR      79  25  13 W12       30.38S
$$

COZ006>008-011-260000-
...WEST CENTRAL VALLEYS...

CITY           SKY/WX    TMP DP  RH WIND       PRES   REMARKS
GRAND JUNCTION FAIR      96  40  14 S12       30.06F
MONTROSE       FAIR      85  43  22 S15G24    30.20R
EAGLE          SUNNY     88  34  14 NE10      30.26F
RIFLE          FAIR      94  32  11 NW17G24   30.15S
DELTA          FAIR      95  34  11 SW6       30.12S
NUCLA          CLOUDY   N/A N/A N/A SE10      30.23R
$$

COZ017>023-064>068-260000-
...SOUTHWEST COLORADO...

CITY           SKY/WX    TMP DP  RH WIND       PRES   REMARKS
DURANGO        FAIR      85  34  16 CALM      30.23S
CORTEZ         FAIR      90  42  18 NW7       30.16F
PAGOSA SPRINGS FAIR      83  28  13 NE6       30.33F
TELLURIDE      FAIR      68  47  48 CALM      30.51F
WOLF CREEK PAS CLOUDY    59  34  38 NE13G18   30.73F
$$

COZ009-010-012-014-032>034-037-058>063-260000-
...CENTRAL COLORADO...

CITY           SKY/WX    TMP DP  RH WIND       PRES   REMARKS
ASPEN          FAIR      80  34  19 SE9G17    30.35F
BUENA VISTA    FAIR      77  32  19 W6        30.38F
COPPER MTN     PTSUNNY   64  27  24 W13       30.73F
BERTHOUD PASS  PTSUNNY   59  43  55 NW13      30.76F
COTTONWOOD PAS FAIR      72  27  18 W12G21    30.56F
GUNNISON       FAIR      70  41  35 W5        30.43F
KREMMLING      FAIR      81  19  10 SW8       30.32S
LEADVILLE      FAIR      66  31  27 SE6       30.55F
MONARCH PASS   PTSUNNY   61  32  33 N13       30.84R
SALIDA         FAIR      83  34  17 N8        30.42F
SUNLIGHT       PTSUNNY   64  34  32 N5        30.66R
WILKERSON PASS PTSUNNY   63  23  22 CALM      30.68F
$$

COZ069>075-260000-
...SAN LUIS VALLEY/SANGRE DE CRISTO MOUNTAINS...

CITY           SKY/WX    TMP DP  RH WIND       PRES   REMARKS
ALAMOSA        FAIR      85  33  15 N7        30.29S
LA VETA PASS   FAIR      70  36  28 N7        30.55F
SAGUACHE       PTSUNNY   81  36  19 N16       30.35S
$$

COZ035-036-038>040-260000-
...NORTHERN COLORADO FRONT RANGE...

CITY           SKY/WX    TMP DP  RH WIND       PRES   REMARKS
DENVER INTL AP FAIR      94  46  19 NE14G20   30.10F
DMNS CITY PARK   N/A     89  53  28 W1        30.10F
AURORA         MOSUNNY   91  52  26 NW9       30.13F
FRONT RANGE AP PTSUNNY   95  45  17 N13G21    30.12
ERIE MUNI ARPT FAIR      89  55  32 N6        30.10F
BOULDER MUN AP FAIR      88  54  31 NW7       30.13F
CENTENNIAL     FAIR      92  37  14 NW10      30.15F
BROOMFIELD     PTSUNNY   88  55  33 N9        30.15F
LONGMONT       FAIR      92  54  27 SW5       30.11F
$$

COZ041-046-047-076>085-087-088-260000-
...PIKES PEAK/PALMER DIVIDE AND SOUTHERN FOOTHILLS...

CITY           SKY/WX    TMP DP  RH WIND       PRES   REMARKS
COLO. SPRINGS  PTSUNNY   68  53  58 SE20G33   30.27R THUNDER
A. F. ACADEMY  FAIR      86  36  17 SW13      30.22F
SCHRIEVER AFB  NOT AVBL
ELLICOTT       FAIR     N/A N/A N/A E15       30.25R THUNDER
FALCON         NOT AVBL
FORT CARSON    DRIZZLE   68  61  77 E21G28    30.25R
LIMON          NOT AVBL
MONUMENT HILL  FAIR      79  39  24 S15       30.29S
TRINIDAD       NOT AVBL
$$

COZ042>045-048>051-090-091-260000-
...NORTHEAST COLORADO...

CITY           SKY/WX    TMP DP  RH WIND       PRES   REMARKS
GREELEY ARPT   FAIR      93  54  26 NE3       30.08F
AKRON          FAIR      83  63  50 SE23G32   30.12F
BURLINGTON     FAIR      81  61  50 SE18      30.13F
WRAY           FAIR      86  59  39 S16G22    30.10S
STERLING       FAIR      88  63  42 S17G24    30.06F
HOLYOKE        FAIR      86  63  45 W10G16    30.09F
FORT MORGAN    FAIR      89  59  35 SE14G23   30.08F
$$

COZ086-089-092>099-260000-
...SOUTHEAST COLORADO...

CITY           SKY/WX    TMP DP  RH WIND       PRES   REMARKS
PUEBLO         FAIR      95  54  25 SE16G25   30.06F
LA JUNTA       FAIR      92  62  36 E22       30.05F
LAMAR          FAIR      88  63  43 SE16G23   30.06F
SPRINGFIELD      N/A     86  61  42 SE15      30.12F
$$



USA.gov is the U.S. government's official web portal to all federal, state and local government web resources and services.